Regional Weather Roundup
Issued by NWS Northern Indiana

Home | Current Version | Previous Version | Text Only | Print | Product List | Glossary Off
Versions: 1 2 3 4 5 6 7 8 9 10 11 12 13 14 15 16 17 18 19 20 21 22 23 24 25 26 27 28 29 30 31 32 33 34 35 36 37 38 39 40 41 42 43 44 45 46 47 48 49 50

000
ASUS43 KIWX 241110
RWRIWX

KIWX WEATHER ROUNDUP
NATIONAL WEATHER SERVICE NORTHERN INDIANA
700 AM EDT SUN MAY 24 2015

NOTE: "FAIR" INDICATES FEW OR NO CLOUDS BELOW 12,000 FEET WITH NO
SIGNIFICANT WEATHER AND/OR OBSTRUCTIONS TO VISIBILITY.

* THESE STATIONS ARE NOT UNDER NWS QUALITY CONTROL. THEY ALSO MAY NOT
  REPORT WEATHER SUCH AS PRECIPITATION OR FOG.

INZ001>027-241200-
NORTHERN INDIANA

CITY           SKY/WX    TMP DP  RH WIND       PRES   REMARKS
GARY*          MOCLDY    63  48  59 SE7       30.20F
VALPARAISO     MOCLDY    57  50  77 NE5       30.22S
MICHIGAN CITY* CLOUDY    61  45  55 CALM      30.22F
LAPORTE*       CLOUDY    59  51  74 CALM      30.23S
KNOX*          MOCLDY    57  45  62 SE5       30.21S
SOUTH BEND     CLOUDY    58  49  72 E5        30.24F
GOSHEN         MOCLDY    54  50  86 CALM      30.25S
MONTICELLO*    CLOUDY    60  49  67 E5        30.21S
LOGANSPORT*    MOCLDY    57  45  62 E3        30.23S
ROCHESTER*     MOCLDY    59  50  72 E3        30.24S
WARSAW*        MOCLDY    55  46  71 E3        30.25S
ANGOLA*        CLEAR     52  50  93 CALM      30.27S
FORT WAYNE     MOCLDY    55  48  77 E3        30.27R
HUNTINGTON*    MOCLDY    55  49  78 CALM      30.25S
PERU/GRISSOM   MOCLDY    58  50  74 SE6       30.22S
MARION*        PTCLDY    58  47  66 SE6       30.25R

$$
INZ028>050-241200-
CENTRAL INDIANA

CITY           SKY/WX    TMP DP  RH WIND       PRES   REMARKS
LAFAYETTE      MOCLDY    60  51  72 E3        30.21R
KOKOMO*        MOCLDY    57  48  72 SE6       30.23S
MUNCIE*        PTCLDY    63  47  55 S8        30.25S
INDIANAPOLIS   CLOUDY    62  48  60 SE10      30.21S

$$
MIZ043>046-050>051-056>058-064>065-071>073-077>080-241200-
SOUTHWEST LOWER MICHIGAN

CITY           SKY/WX    TMP DP  RH WIND       PRES   REMARKS
BATTLE CREEK   PTCLDY    55  47  74 SE3       30.26S
BENTON HARBOR  MOCLDY    51  47  86 SE5       30.22F
COLDWATER*     PTCLDY    51  49  92 CALM      30.27S
HILLSDALE*     CLEAR     55  51  86 CALM      30.28S
HOLLAND        MOCLDY    56  46  69 SE3       30.23F
GRAND RAPIDS   MOCLDY    55  48  77 SE5       30.24S
KALAMAZOO      PTCLDY    52  47  83 S3        30.26S
STURGIS*       CLEAR     55  46  71 CALM      30.26S
THREE RIVERS*  FAIR      51  48  92 CALM      30.26S

$$
OHZ001>008-015>018-024>025-241200-
NORTHWEST OHIO

CITY           SKY/WX    TMP DP  RH WIND       PRES   REMARKS
WAUSEON*       FAIR      52  48  87 CALM      30.28S
DEFIANCE       PTCLDY    52  49  89 CALM      30.28R
FINDLAY        CLEAR     56  45  66 SE6       30.28S
TOLEDO EXPRESS CLEAR     50  46  86 CALM      30.29R
TOLEDO METCALF CLEAR     56  44  64 CALM      30.30R
LIMA           PTCLDY    58  46  64 S8        30.29S

$$
AND FOR LAKE MICHIGAN COASTAL AND OPEN LAKE BUOY OBSERVATIONS

STATION/POSITION TEMP    WIND        PRES    VSBY  WAVE
                 AIR SEA DIR/SP/G                  HT/PER
                 (F)     (DEG/KT/KT) (MB)    (MI)  (FT/S)
CALUMET HARBOR    61      70/  2/  3   N/A
MICHIGAN CITY     63     120/  8/ 10   N/A
BURNS HARBOR      66     140/  7/ 10 1023.4R
SAINT JOSEPH      60     110/  2/  6 1023.7F
SOUTH LAKE BUOY   45 38  170/  8/ 10 1023.4F         0
4 MI NW BRIDGMAN  59 54  150/  6/  6   N/A           0
MICHIGAN CITY     58 55  150/  4/  4   N/A           0

$$
&&


USA.gov is the U.S. government's official web portal to all federal, state and local government web resources and services.